Probability
35 19 26 32 26 26 19 32 23 23 39 29 26 32 35 42 29 26 45 48 55 58 55 55 61 58 58 58 48 48 48 45 42 42 39 35 35 35 35 32 35 35 32
45 39 42 45 32 26 32 29 26 42 26 35 32 45 42 42 42 39 29 52 55 58 55 58 61 58 55 45 48 52 52 48 45 45 42 42 39 32 39 35 32 35 39
52 45 39 32 32 32 39 32 29 35 29 32 35 35 29 35 39 39 42 42 45 48 58 52 55 61 58 48 42 55 52 48 42 45 45 45 42 35 32 35 35 35 42
42 45 35 35 42 39 39 45 35 26 26 23 35 32 32 42 39 35 39 42 42 35 45 52 55 52 52 48 45 52 48 52 45 48 39 42 42 39 35 42 39 35 32
39 35 45 42 45 32 32 29 35 35 23 35 23 32 26 35 39 35 42 42 45 45 45 48 55 45 42 48 45 48 45 45 42 39 39 35 39 39 39 35 35 35 35
52 58 55 55 52 48 42 42 42 45 35 45 19 19 26 29 32 29 29 29 23 29 32 39 55 45 39 39 42 45 45 45 39 39 42 39 42 45 48 35 39 35 32
42 55 48 58 61 58 58 45 39 39 39 32 29 19 19 26 23 26 23 26 16 19 23 32 39 45 45 32 32 39 39 42 42 42 45 42 48 42 42 45 35 29 32
52 52 61 61 61 65 68 68 61 42 35 39 32 29 29 29 29 19 26 26 19 19 16 19 35 52 39 48 23 29 32 29 29 32 42 39 45 45 39 39 39 39 39
48 55 58 55 58 48 48 68 58 48 35 39 39 39 29 19 23 19 23 23 19 13 19 10 16 29 32 39 29 26 26 23 23 29 35 39 42 39 42 42 39 35 39
52 48 45 45 52 39 48 52 42 39 39 32 39 42 42 39 32 16 19 16 13 10 10 6 6 23 26 26 19 10 16 16 16 16 23 29 35 32 32 32 29 32 35
48 48 45 52 48 48 48 48 48 39 35 26 26 29 32 39 35 29 13 13 10 13 16 13 10 16 19 16 23 10 10 16 19 13 13 19 23 26 29 32 32 32 35
45 42 45 55 52 52 45 55 52 48 45 48 32 29 29 26 19 19 16 26 19 19 19 13 13 10 6 13 10 3 3 3 6 6 13 13 16 19 26 26 29 32 35
39 42 42 48 52 52 55 55 52 45 42 48 42 32 26 29 23 19 23 16 13 13 23 16 13 13 6 10 10 6 6 0 0 0 0 6 13 16 19 23 29 32 32
35 42 42 39 42 45 45 52 42 42 39 45 42 39 29 26 26 23 19 26 16 13 16 10 6 19 16 13 10 6 10 0 0 0 0 0 3 6 6 19 23 26 32
39 42 42 39 35 39 42 45 45 45 45 39 35 29 29 23 26 23 23 23 16 16 10 13 10 10 13 19 13 13 13 10 3 0 0 0 0 0 3 3 3 13 16
39 39 42 35 32 32 39 42 45 45 42 42 39 29 29 26 26 26 26 26 23 13 13 6 13 6 13 6 10 13 16 13 3 0 3 3 0 0 0 0 0 0 0
39 39 35 35 39 39 39 39 39 32 35 35 32 29 29 32 26 23 23 23 23 23 16 16 13 19 16 13 13 13 16 16 13 3 3 0 3 3 0 0 0 0 0
32 35 32 35 39 35 39 35 35 29 29 29 32 32 26 26 26 23 23 19 19 23 19 16 16 19 23 16 19 16 13 10 13 6 0 0 0 0 0 0 0 0 0
32 35 32 32 35 35 35 39 32 32 29 26 29 32 26 26 23 23 23 23 19 16 16 16 16 26 19 23 23 23 13 16 10 10 3 0 0 0 0 0 0 0 0
32 32 32 35 35 35 35 32 35 35 35 26 23 26 26 26 23 26 26 23 23 23 23 16 16 16 19 23 23 19 16 19 13 10 6 6 3 3 3 0 0 0 0
29 29 32 32 32 29 29 26 29 29 35 26 26 23 19 19 19 23 19 19 23 23 19 19 19 19 16 16 16 16 13 16 19 13 13 13 6 6 3 3 3 3 0
29 29 26 26 32 29 19 16 19 32 32 32 26 23 23 16 13 3 3 6 19 19 19 16 16 19 19 19 19 16 16 16 16 16 16 13 13 13 16 10 3 3 0
26 26 29 29 29 29 16 10 6 23 32 32 26 23 13 10 13 19 10 0 0 0 3 19 16 16 23 19 26 19 26 16 16 16 16 16 13 13 13 6 3 3 0
23 23 26 26 26 26 16 6 3 19 29 32 29 23 19 23 13 16 16 16 23 19 13 10 19 23 23 26 26 26 26 23 23 23 19 13 6 10 6 13 3 3 3
23 29 26 26 26 26 16 6 0 26 26 23 23 19 19 23 13 10 16 16 13 23 10 6 6 16 16 10 13 19 23 19 16 13 23 16 13 10 6 13 6 3 3
26 23 23 23 26 26 19 0 0 23 23 19 23 26 10 10 10 6 16 16 16 19 16 13 6 6 6 6 0 13 19 16 13 10 19 19 13 13 6 13 13 3 3
Height
5885 5885 5884 5884 5883 5882 5882 5881 5880 5879 5878 5878 5879 5880 5881 5881 5882 5882 5883 5883 5884 5885 5885 5885 5885 5885 5886 5886 5887 5887 5888 5888 5888 5888 5888 5888 5888 5889 5889 5889 5889 5889 5890
5884 5884 5884 5883 5882 5881 5881 5880 5879 5878 5877 5877 5878 5879 5880 5880 5881 5881 5882 5882 5883 5883 5884 5884 5884 5884 5884 5885 5885 5885 5886 5886 5887 5887 5887 5887 5887 5887 5887 5887 5888 5888 5888
5883 5883 5883 5882 5881 5881 5880 5879 5878 5878 5877 5877 5878 5878 5878 5879 5879 5880 5880 5881 5881 5882 5882 5882 5882 5883 5883 5883 5883 5884 5884 5884 5885 5885 5885 5885 5885 5885 5885 5885 5886 5886 5886
5882 5881 5881 5881 5880 5880 5879 5879 5878 5878 5877 5877 5877 5877 5877 5877 5878 5879 5879 5879 5880 5880 5880 5881 5881 5881 5881 5881 5882 5882 5882 5882 5883 5883 5883 5883 5883 5883 5883 5883 5883 5883 5884
5881 5880 5880 5880 5879 5879 5878 5878 5877 5877 5877 5876 5876 5876 5876 5876 5876 5877 5877 5878 5878 5878 5879 5879 5879 5879 5879 5879 5879 5880 5880 5880 5880 5881 5881 5881 5881 5881 5881 5881 5881 5881 5881
5879 5879 5879 5878 5878 5877 5877 5876 5876 5876 5875 5875 5875 5875 5875 5875 5875 5875 5875 5876 5876 5876 5876 5876 5876 5877 5877 5877 5877 5877 5877 5878 5878 5878 5878 5878 5878 5878 5878 5878 5878 5878 5878
5878 5877 5877 5877 5876 5876 5875 5875 5874 5874 5874 5873 5873 5873 5873 5872 5873 5873 5873 5873 5874 5874 5874 5874 5874 5874 5874 5875 5875 5875 5875 5875 5875 5875 5875 5875 5875 5875 5876 5875 5875 5875 5875
5876 5876 5875 5875 5874 5874 5873 5873 5872 5872 5872 5871 5871 5871 5871 5871 5870 5870 5871 5871 5871 5871 5871 5871 5871 5871 5871 5871 5871 5871 5871 5871 5872 5872 5872 5872 5872 5872 5872 5872 5872 5872 5872
5875 5874 5874 5873 5872 5872 5871 5870 5870 5870 5869 5869 5869 5869 5868 5868 5868 5868 5868 5868 5868 5868 5868 5868 5868 5868 5868 5868 5868 5868 5868 5868 5868 5868 5868 5868 5868 5868 5868 5868 5868 5868 5868
5873 5872 5872 5871 5870 5869 5868 5867 5867 5867 5866 5866 5866 5865 5865 5865 5865 5865 5865 5864 5864 5864 5864 5864 5864 5864 5864 5864 5864 5864 5864 5864 5864 5864 5864 5864 5864 5864 5865 5865 5864 5865 5864
5870 5869 5869 5868 5867 5866 5865 5864 5864 5863 5863 5863 5862 5862 5862 5861 5861 5861 5861 5861 5861 5860 5860 5860 5860 5859 5859 5859 5860 5860 5860 5860 5860 5860 5860 5860 5860 5860 5860 5859 5860 5860 5860
5867 5866 5865 5865 5864 5863 5862 5861 5860 5860 5859 5859 5859 5858 5858 5857 5857 5857 5857 5856 5856 5856 5856 5855 5855 5855 5855 5855 5855 5855 5855 5855 5855 5855 5856 5856 5856 5855 5855 5855 5855 5855 5855
5863 5863 5862 5861 5860 5859 5858 5857 5856 5856 5855 5855 5854 5854 5853 5853 5853 5852 5852 5851 5851 5851 5851 5850 5850 5850 5850 5850 5850 5850 5850 5850 5850 5850 5850 5850 5850 5850 5850 5850 5850 5850 5850
5859 5859 5858 5857 5856 5854 5853 5853 5852 5851 5851 5850 5850 5849 5849 5848 5847 5847 5847 5847 5846 5846 5845 5845 5845 5845 5845 5845 5845 5845 5845 5845 5845 5845 5845 5845 5845 5845 5845 5845 5844 5844 5844
5855 5854 5853 5852 5851 5850 5849 5848 5847 5847 5846 5845 5845 5844 5844 5843 5842 5842 5841 5841 5841 5840 5840 5839 5839 5839 5838 5839 5839 5839 5839 5839 5839 5839 5839 5839 5839 5839 5839 5839 5839 5839 5838
5851 5850 5848 5848 5846 5845 5844 5843 5842 5841 5841 5840 5839 5839 5838 5838 5837 5836 5835 5835 5835 5834 5834 5833 5833 5832 5832 5832 5832 5832 5832 5832 5832 5832 5833 5833 5833 5832 5833 5833 5833 5833 5833
5846 5845 5844 5842 5841 5840 5839 5838 5837 5836 5835 5835 5834 5833 5832 5832 5831 5830 5830 5829 5828 5828 5827 5827 5826 5826 5825 5825 5825 5825 5825 5826 5826 5826 5826 5826 5826 5826 5826 5826 5827 5827 5827
5842 5840 5838 5837 5836 5835 5833 5832 5831 5830 5830 5829 5828 5827 5826 5825 5825 5824 5823 5822 5822 5821 5821 5820 5819 5819 5818 5818 5818 5818 5818 5818 5819 5819 5819 5819 5820 5820 5820 5820 5820 5820 5821
5836 5834 5833 5832 5830 5829 5828 5826 5825 5824 5824 5823 5822 5821 5820 5819 5818 5817 5816 5816 5815 5814 5813 5813 5812 5811 5811 5811 5810 5811 5811 5811 5811 5812 5812 5812 5813 5813 5813 5813 5813 5814 5814
5830 5828 5827 5826 5824 5823 5821 5820 5819 5818 5817 5816 5815 5814 5813 5812 5812 5810 5810 5809 5808 5807 5806 5805 5805 5804 5804 5803 5803 5803 5804 5804 5804 5804 5805 5805 5806 5806 5806 5806 5807 5807 5807
5824 5822 5820 5819 5818 5817 5815 5814 5812 5812 5811 5810 5809 5807 5806 5806 5805 5804 5802 5802 5801 5800 5799 5798 5798 5797 5797 5797 5797 5796 5796 5797 5797 5797 5798 5798 5798 5799 5799 5799 5800 5800 5801
5818 5816 5815 5813 5811 5810 5809 5807 5806 5805 5804 5803 5802 5801 5800 5799 5798 5796 5795 5794 5793 5793 5792 5791 5791 5790 5790 5790 5789 5789 5790 5790 5791 5791 5791 5791 5791 5792 5792 5792 5793 5793 5794
5811 5810 5808 5807 5805 5803 5802 5801 5799 5798 5797 5796 5795 5794 5793 5792 5790 5789 5787 5786 5786 5785 5784 5784 5783 5783 5783 5783 5783 5783 5783 5783 5784 5784 5784 5784 5784 5784 5785 5785 5786 5786 5787
5804 5803 5801 5799 5797 5795 5794 5793 5792 5791 5790 5789 5788 5787 5785 5784 5783 5781 5780 5778 5778 5777 5776 5776 5776 5776 5776 5776 5776 5776 5776 5777 5777 5777 5777 5777 5777 5777 5777 5778 5778 5779 5779
5798 5796 5793 5792 5789 5788 5787 5786 5784 5783 5782 5781 5780 5779 5778 5777 5775 5774 5772 5771 5770 5769 5768 5768 5768 5768 5769 5769 5769 5770 5770 5770 5770 5770 5770 5770 5770 5770 5770 5770 5770 5771 5772
5790 5788 5787 5785 5783 5781 5780 5778 5777 5776 5775 5774 5773 5771 5770 5769 5767 5766 5764 5763 5762 5761 5760 5760 5760 5761 5761 5761 5762 5763 5763 5763 5763 5763 5763 5763 5763 5762 5763 5763 5763 5763 5764
Wind_Speed
1 1 1 2 2 2 2 3 3 3 4 5 5 6 6 7 7 7 7 6 6 6 6 7 7 7 7 6 6 7 7 7 6 7 7 7 7 7 7 7 7 7 7
3 3 2 2 3 3 3 3 3 3 3 5 5 5 6 6 8 7 7 7 7 7 7 6 7 7 7 7 7 8 8 8 7 7 7 7 7 7 7 8 8 8 9
4 4 3 3 4 4 3 3 3 3 3 5 6 6 6 7 7 7 7 7 7 7 7 7 7 7 8 7 7 8 8 8 9 8 8 8 8 8 8 8 9 9 9
4 4 4 4 4 4 4 4 4 4 4 5 6 7 7 8 8 8 8 7 8 8 8 8 8 9 9 8 8 8 8 9 9 9 8 8 8 9 9 10 10 10 10
4 4 4 5 5 5 5 5 5 5 5 5 6 7 7 9 9 9 9 9 9 9 9 9 10 10 10 10 9 9 9 10 10 11 11 10 10 10 10 11 11 11 11
5 5 5 5 6 6 6 7 7 7 7 7 7 7 8 9 10 10 10 10 10 11 10 10 10 11 10 10 10 10 10 11 12 12 12 12 12 12 12 13 13 13 12
6 6 7 7 7 8 8 8 8 8 8 8 9 9 9 9 10 11 11 11 11 11 12 12 12 12 11 11 11 11 12 12 13 12 12 13 13 13 13 13 13 13 13
7 8 8 9 9 9 9 9 9 9 10 10 10 11 10 11 10 11 11 12 13 12 12 12 13 13 13 12 13 12 13 13 14 14 13 14 14 13 14 14 14 14 14
9 9 10 10 10 10 10 11 11 11 11 12 12 12 12 12 11 11 12 13 14 14 14 14 15 14 15 14 14 14 14 14 14 15 15 15 16 15 15 15 15 15 15
11 11 11 11 11 12 12 11 11 12 12 12 13 13 14 13 13 13 13 14 14 15 16 17 16 16 17 17 16 16 15 16 16 17 16 17 17 17 17 17 17 17 16
12 12 12 12 13 13 13 13 12 13 13 13 13 14 15 15 15 14 15 16 16 17 18 18 18 17 17 17 17 17 17 18 17 18 18 18 18 18 18 18 17 17 18
13 13 13 14 14 14 14 14 14 14 14 15 15 15 16 16 16 17 17 17 18 18 18 18 18 19 19 20 18 17 18 18 19 19 19 20 20 20 19 18 19 19 19
14 14 15 15 16 16 16 16 16 16 16 16 16 16 17 17 18 18 19 19 19 19 19 19 20 21 21 21 20 19 19 19 19 19 20 20 21 21 21 20 20 19 19
16 16 16 17 17 17 18 17 17 17 17 17 17 17 18 18 19 20 20 21 21 21 20 20 21 22 22 22 21 21 21 21 21 21 21 22 22 21 21 21 20 19 20
17 17 17 17 17 18 18 19 19 18 18 19 19 19 19 20 21 21 22 22 22 23 22 21 22 22 23 23 23 23 23 23 22 22 22 22 21 22 21 21 20 20 20
17 18 18 18 18 19 19 20 19 19 20 20 20 21 21 21 22 22 22 23 23 24 24 24 24 24 24 24 24 24 24 24 23 23 23 22 22 21 21 21 21 20 20
18 19 19 19 19 20 20 20 21 21 21 21 21 22 22 22 22 23 23 23 24 24 25 25 26 26 26 26 26 26 25 25 25 25 24 23 22 22 22 22 21 21 21
19 19 20 20 21 21 21 21 22 22 22 22 22 23 23 23 23 23 23 23 23 24 24 25 26 27 27 26 26 26 26 26 26 25 24 23 23 23 22 22 22 21 21
19 20 20 20 21 21 22 22 22 22 23 22 23 23 23 24 24 23 24 24 24 25 25 25 26 27 27 26 26 26 26 26 26 26 25 25 24 24 23 23 22 22 22
21 21 21 21 22 22 22 22 22 22 22 23 23 23 23 24 24 24 24 24 24 25 25 25 25 25 26 26 25 25 25 26 26 26 25 25 25 25 24 23 23 22 22
22 22 22 23 23 23 23 23 23 23 23 23 23 23 23 24 24 24 24 23 24 24 24 25 25 25 25 25 24 24 24 25 25 25 24 25 25 25 24 24 23 22 22
22 22 23 23 24 24 24 24 23 23 23 23 24 24 23 23 24 25 24 24 24 24 24 25 25 24 24 24 23 23 23 23 24 24 24 24 24 24 24 23 23 23 23
23 24 25 25 25 25 25 24 23 23 24 24 24 24 24 25 25 25 24 24 24 24 25 25 24 24 24 24 23 22 22 22 22 23 23 23 23 24 24 24 24 24 24
23 24 25 26 25 25 26 25 24 24 24 24 24 25 25 25 25 25 25 25 25 25 25 24 24 23 23 24 23 22 22 22 22 22 23 23 23 23 24 24 24 25 25
25 25 25 24 25 25 25 24 24 24 24 24 25 25 25 25 25 24 25 25 25 25 25 25 25 25 24 24 23 23 23 23 23 23 23 23 23 23 23 24 25 25 25
26 26 26 25 25 24 24 24 24 25 25 25 25 25 24 24 24 24 24 24 25 25 25 25 25 25 24 23 23 24 24 24 24 24 23 23 23 23 23 23 24 25 25
Wind_Direction
234 255 278 309 303 300 303 294 279 267 247 226 217 219 218 220 222 221 219 224 230 229 230 236 228 232 236 237 239 236 235 244 255 262 260 258 255 254 258 261 256 255 253
241 256 271 281 288 304 305 302 280 264 243 227 231 228 221 228 225 220 224 228 229 232 236 234 236 235 239 245 247 246 246 250 252 257 258 260 262 258 256 256 259 259 256
245 254 264 269 275 288 293 288 278 257 242 236 238 237 232 233 230 230 233 234 231 232 235 237 238 240 247 255 254 256 257 254 255 257 257 258 265 266 261 258 262 261 261
254 264 272 278 280 283 286 278 273 262 256 254 249 242 236 232 231 234 235 235 234 237 238 243 247 249 252 257 259 260 262 261 260 259 257 259 264 269 268 263 262 262 261
258 266 277 282 282 280 279 275 271 265 260 258 259 253 242 236 235 236 240 240 242 243 245 250 252 254 257 258 259 260 261 263 264 264 260 260 264 265 265 266 265 265 263
269 272 279 282 279 276 274 275 271 267 265 260 260 260 254 248 246 245 248 247 248 250 251 254 254 255 260 260 260 260 262 263 266 267 261 261 263 264 264 265 267 269 264
278 278 282 283 281 278 276 274 271 268 266 261 260 261 261 258 254 251 255 255 256 256 257 256 257 258 260 262 262 264 264 264 264 268 264 264 264 266 266 265 266 270 267
277 280 282 281 280 280 280 277 273 269 266 264 264 264 260 258 254 255 261 260 259 259 261 263 261 258 260 262 261 264 267 265 265 267 268 268 267 267 266 268 264 265 265
276 278 280 279 281 280 280 279 277 273 269 267 265 263 260 259 259 262 265 264 259 260 263 266 264 262 262 263 264 266 268 266 266 266 267 267 268 269 268 269 268 266 267
279 278 280 279 280 280 278 279 280 277 274 272 271 266 264 263 261 263 263 263 263 262 262 266 268 267 266 265 265 268 268 266 266 264 266 267 268 269 269 270 270 269 271
280 279 281 282 283 282 279 278 279 279 279 276 274 270 266 265 264 264 263 264 264 265 265 265 266 268 267 266 266 267 268 268 266 265 267 268 271 269 269 270 272 269 269
281 281 282 282 284 283 279 278 277 278 278 277 274 271 269 267 266 268 267 268 266 267 267 267 266 269 269 268 267 267 268 267 266 266 268 268 270 269 271 271 273 270 270
279 281 283 282 282 281 279 279 279 280 280 278 275 273 271 269 268 269 270 270 270 270 269 268 268 268 269 269 267 267 267 267 267 267 267 268 270 271 270 272 273 271 271
280 280 282 283 283 281 278 278 279 280 278 278 277 274 273 272 272 270 271 272 274 273 270 269 269 268 268 268 267 269 270 270 269 269 269 268 268 269 271 271 273 272 270
282 281 282 284 284 283 280 278 279 279 277 276 276 275 275 275 275 273 273 272 273 273 271 271 269 267 267 267 268 269 270 270 271 271 270 268 268 268 269 270 271 271 270
284 282 281 282 283 284 284 282 280 280 278 277 276 276 275 276 276 275 276 275 274 273 272 273 272 270 269 268 268 269 269 269 269 271 271 269 269 270 271 270 269 269 268
286 285 282 281 283 284 284 283 281 280 282 281 279 276 275 276 277 277 276 275 274 273 274 273 272 272 272 271 271 269 269 269 269 270 270 269 270 270 271 270 268 267 267
284 283 284 284 284 284 284 282 281 280 282 281 279 277 275 274 275 275 275 274 274 273 273 274 274 274 274 273 272 270 268 269 268 268 269 269 269 270 270 270 268 267 267
285 283 284 284 284 285 284 284 283 282 280 281 282 280 277 275 275 274 273 273 274 273 273 273 274 274 274 273 271 268 267 266 267 267 267 268 267 266 267 268 268 266 267
289 287 285 284 284 284 284 284 284 284 282 281 282 282 279 276 275 275 276 274 273 273 273 272 272 272 273 273 271 270 269 268 268 269 269 269 267 266 266 268 267 266 266
289 289 287 286 286 285 285 285 285 285 284 282 282 283 279 276 275 277 277 276 274 272 272 272 272 271 272 272 271 271 270 269 269 269 270 270 268 266 264 266 266 264 264
287 287 288 287 286 286 286 286 285 284 283 283 283 282 280 277 276 278 276 274 274 274 274 272 271 270 269 269 269 270 270 269 269 268 269 270 270 267 264 264 264 263 262
288 289 288 288 287 285 284 284 283 283 283 282 281 281 279 278 277 277 276 275 274 273 272 270 269 268 267 267 269 269 269 269 268 269 270 270 270 269 267 264 263 262 262
290 290 290 288 287 286 285 283 283 283 283 283 282 280 278 277 277 277 276 274 274 273 272 269 269 269 266 265 266 266 267 268 269 270 270 271 270 271 268 264 263 262 262
292 290 288 288 290 290 289 285 282 282 283 282 281 280 278 279 278 276 275 275 274 272 271 269 268 267 266 264 263 264 267 269 269 270 270 271 271 270 268 265 262 262 261
291 289 288 288 290 290 288 286 283 282 281 281 280 279 278 278 277 277 275 275 274 272 269 266 266 265 266 264 261 264 267 268 269 270 270 270 268 268 268 266 264 262 260